FW5284 Weather Reports


Display with metric or nautical units.
time (UTC)temp
F
wind
direction
speed
MPH
gust
MPH
rain 1hr
in
rain 24hr
in
rain mn
in
humidity
%
barometer
mb
20260506120506 42 31 0.0 0.0 0.00 0.00 0.00 77 983.6
20260506120023 42 31 0.0 0.0 0.00 0.00 0.00 79 983.4
20260506115516 42 31 0.0 0.0 0.00 0.00 0.00 80 983.3
20260506115007 42 31 0.0 0.0 0.00 0.00 0.00 79 983.1
20260506114533 41 31 0.0 0.0 0.00 0.00 0.00 80 983.1
20260506114012 41 31 0.0 0.0 0.00 0.00 0.00 80 983.0
20260506113510 41 31 0.0 0.0 0.00 0.00 0.00 80 982.9
20260506113010 41 31 0.0 0.0 0.00 0.00 0.00 80 982.8
20260506112503 41 31 0.0 0.0 0.00 0.00 0.00 81 982.7
20260506112007 41 31 0.0 0.0 0.00 0.00 0.00 81 982.6
20260506111514 41 31 0.0 0.0 0.00 0.00 0.00 80 982.4
20260506111004 41 30 0.0 0.0 0.00 0.00 0.00 79 982.5
20260506110505 41 30 0.0 0.0 0.00 0.00 0.00 78 982.4
20260506110021 42 30 0.0 0.0 0.00 0.00 0.00 77 982.3
20260506105507 42 30 0.0 0.0 0.00 0.00 0.00 75 982.1
20260506105009 42 30 0.0 0.0 0.00 0.00 0.00 75 982.2
20260506104522 42 30 0.0 0.0 0.00 0.00 0.00 74 982.0
20260506104006 42 30 0.0 0.0 0.00 0.00 0.00 73 982.0
20260506103514 42 30 0.0 0.0 0.00 0.00 0.00 73 982.2
20260506103029 42 30 0.0 0.0 0.00 0.00 0.00 73 982.3
20260506102507 42 30 0.0 0.0 0.00 0.00 0.00 72 982.2
20260506102012 43 30 0.0 0.0 0.00 0.00 0.00 72 982.2
20260506101540 43 30 0.0 0.0 0.00 0.00 0.00 72 982.1
20260506101003 43 30 0.0 0.0 0.00 0.00 0.00 73 981.9
20260506100505 43 30 0.0 0.0 0.00 0.00 0.00 73 981.9
20260506100015 43 30 0.0 0.0 0.00 0.00 0.00 74 981.8
20260506095507 43 30 0.0 0.0 0.00 0.00 0.00 74 981.9
20260506095004 44 30 0.0 0.0 0.00 0.00 0.00 74 982.0
20260506094524 44 30 0.0 0.0 0.00 0.00 0.00 74 981.9
20260506094013 44 30 0.0 0.0 0.00 0.00 0.00 73 981.7
20260506093503 44 30 0.0 0.0 0.00 0.00 0.00 74 981.7
20260506093004 44 30 0.0 0.0 0.00 0.00 0.00 74 981.7
20260506092504 45 30 0.0 0.0 0.00 0.00 0.00 75 981.7
20260506092005 45 30 0.0 0.0 0.00 0.00 0.00 75 981.7
20260506091508 45 30 0.0 0.0 0.00 0.00 0.00 74 981.6
20260506091004 45 30 0.0 0.0 0.00 0.00 0.00 74 981.7
20260506090503 45 30 0.0 0.0 0.00 0.00 0.00 75 981.8
20260506090011 45 30 0.0 0.0 0.00 0.00 0.00 75 981.8
20260506085503 46 30 0.0 0.0 0.00 0.00 0.00 75 981.9
20260506085004 46 30 0.0 0.0 0.00 0.00 0.00 75 981.7
20260506084516 46 30 0.0 0.0 0.00 0.00 0.00 74 981.4
20260506084004 46 30 0.0 0.0 0.00 0.00 0.00 74 981.4
20260506083502 46 30 0.0 0.0 0.00 0.00 0.00 73 981.1
20260506083004 46 30 0.0 0.0 0.00 0.00 0.00 73 981.2
20260506082503 47 30 0.0 0.0 0.00 0.00 0.00 74 981.2
20260506082003 47 30 0.0 0.0 0.00 0.00 0.00 74 981.1
20260506081506 47 30 0.0 0.0 0.00 0.00 0.00 73 981.1
20260506081004 47 30 0.0 0.0 0.00 0.00 0.00 75 980.9
20260506080503 47 30 0.0 0.0 0.00 0.00 0.00 75 980.9
20260506073504 48 30 0.0 0.0 0.00 0.00 0.00 84 980.9
20260506073033 48 30 0.0 0.0 0.00 0.00 0.00 84 980.8
20260506072506 48 30 0.0 0.0 0.00 0.00 0.00 84 980.8
20260506072013 48 30 0.0 0.0 0.00 0.00 0.00 84 980.8
20260506071504 48 30 0.0 0.0 0.00 0.00 0.00 84 980.8
20260506071006 48 30 0.0 0.0 0.00 0.00 0.00 84 980.9
20260506070503 48 30 0.0 0.0 0.00 0.00 0.00 84 980.9
20260506062505 48 30 0.0 0.0 0.00 0.00 0.00 83 981.2
20260506062006 48 30 0.0 0.0 0.00 0.00 0.00 82 981.2
20260506061520 48 30 0.0 0.0 0.00 0.00 0.00 82 981.2
20260506061006 48 30 0.0 0.0 0.00 0.00 0.00 83 981.3
20260506060506 48 30 0.0 0.0 0.00 0.00 0.00 83 981.2
20260506051009 49 30 0.0 0.0 0.00 0.00 0.00 81 981.4
20260506050506 49 30 0.0 0.0 0.00 0.00 0.00 81 981.4
20260506045007 49 30 0.0 0.0 0.00 0.01 0.00 81 981.3
20260506044551 49 30 0.0 0.0 0.00 0.01 0.00 81 981.4
20260506044003 49 30 0.0 0.0 0.00 0.01 0.00 82 981.3
20260506043505 49 30 0.0 0.0 0.00 0.01 0.00 82 981.2
20260506043016 49 30 0.0 0.0 0.00 0.01 0.00 82 981.1
20260506042506 49 30 0.0 0.0 0.00 0.01 0.00 81 981.0
20260506042007 49 30 0.0 0.0 0.00 0.01 0.00 82 981.1
20260506041512 49 30 0.0 0.0 0.00 0.01 0.00 80 981.0
20260506041007 49 30 0.0 0.0 0.00 0.01 0.00 80 980.8
20260506040507 49 30 0.0 0.0 0.00 0.01 0.00 79 980.7
20260506040017 49 30 0.0 0.0 0.00 0.01 0.00 78 980.7
20260506035506 49 30 0.0 0.0 0.00 0.01 0.01 78 980.8
20260506035007 49 30 0.0 0.0 0.00 0.02 0.01 78 980.8
20260506034543 49 30 0.0 0.0 0.00 0.02 0.01 79 980.9
20260506034008 49 30 0.0 0.0 0.00 0.03 0.01 79 980.9
20260506033506 49 30 0.0 0.0 0.00 0.04 0.01 80 980.9
20260506033025 49 30 0.0 0.0 0.00 0.04 0.01 81 981.1
20260506032503 49 30 0.0 0.0 0.00 0.05 0.01 80 981.0
20260506032003 49 30 0.0 0.0 0.00 0.05 0.01 80 981.1
20260506031508 49 30 0.0 0.0 0.00 0.06 0.01 80 980.9
20260506031004 49 30 0.0 0.0 0.00 0.06 0.01 78 981.0
20260506030507 49 30 0.0 0.0 0.00 0.07 0.01 77 981.0
20260506030016 49 30 0.0 0.0 0.00 0.07 0.01 77 981.1
20260506025507 49 30 0.0 0.0 0.00 0.07 0.01 76 981.1
20260506025007 49 30 0.0 0.0 0.00 0.08 0.01 75 980.9
20260506024520 49 30 0.0 0.0 0.00 0.09 0.01 74 980.9
20260506024011 50 30 0.0 0.0 0.00 0.11 0.01 74 981.0
20260506023513 50 30 0.0 0.0 0.00 0.11 0.01 73 981.0
20260506023026 50 30 0.0 0.0 0.00 0.11 0.01 73 980.9
20260506022510 50 30 0.0 0.0 0.00 0.11 0.01 74 980.8
20260506022006 50 30 0.0 0.0 0.00 0.11 0.01 73 980.8
20260506021525 50 30 0.0 0.0 0.00 0.11 0.01 72 980.8
20260506021009 50 30 0.0 0.0 0.00 0.11 0.01 71 980.8
20260506020504 50 30 0.0 0.0 0.00 0.11 0.01 71 980.8
20260506020014 50 30 0.0 0.0 0.00 0.11 0.01 72 980.7
20260506015504 50 30 0.0 0.0 0.00 0.11 0.01 72 980.5
20260506015006 50 30 0.0 0.0 0.00 0.11 0.01 71 980.4
20260506014520 50 30 0.0 0.0 0.00 0.11 0.01 70 980.4
20260506014007 50 30 0.0 0.0 0.00 0.11 0.01 69 980.5
20260506013509 50 30 0.0 0.0 0.00 0.11 0.01 69 980.5
20260506013023 50 30 0.0 0.0 0.00 0.11 0.01 69 980.4
20260506012509 50 30 0.0 0.0 0.00 0.11 0.01 70 980.4
20260506012010 50 30 0.0 0.0 0.00 0.11 0.01 68 980.3
20260506011523 50 30 0.0 0.0 0.00 0.11 0.01 67 980.2
20260506011011 50 30 0.0 0.0 0.00 0.11 0.01 68 980.2
20260506010507 50 30 0.0 0.0 0.00 0.11 0.01 66 980.0
20260506010027 50 30 0.0 0.0 0.00 0.11 0.01 65 979.9
20260506005509 50 30 0.0 0.0 0.00 0.11 0.01 65 979.8
20260506005010 50 30 0.0 0.0 0.00 0.11 0.01 65 979.9
20260506004529 50 30 0.0 0.0 0.00 0.11 0.01 65 980.0
20260506004008 50 30 0.0 0.0 0.00 0.11 0.01 64 979.9
20260506003507 50 30 0.0 0.0 0.00 0.11 0.01 66 979.9
20260506003004 50 30 0.0 0.0 0.00 0.11 0.01 65 980.0
20260506002505 50 30 0.0 0.0 0.00 0.11 0.01 66 980.1
20260506002003 50 30 0.0 0.0 0.00 0.11 0.01 65 979.8
20260506001504 50 30 0.0 0.0 0.00 0.11 0.01 66 979.7
20260506001004 50 30 0.0 0.0 0.00 0.11 0.01 64 979.8
20260506000504 51 30 0.0 0.0 0.00 0.11 0.01 64 979.8
20260506000005 51 30 0.0 0.0 0.00 0.11 0.01 66 979.9
20260505235504 51 30 0.0 0.0 0.00 0.11 0.01 67 979.9
20260505235003 51 30 0.0 0.0 0.00 0.11 0.01 65 979.8
20260505234517 51 30 0.0 0.0 0.00 0.11 0.01 66 979.8
20260505234004 51 30 0.0 0.0 0.00 0.11 0.01 65 979.8
20260505233510 51 30 0.0 0.0 0.00 0.11 0.01 64 979.9
20260505233018 51 30 0.0 0.0 0.00 0.11 0.01 66 980.0
20260505232508 51 30 0.0 0.0 0.00 0.11 0.01 64 980.1
20260505232007 51 30 0.0 0.0 0.00 0.11 0.01 63 980.1
20260505231509 51 30 0.0 0.0 0.00 0.11 0.01 62 980.1
20260505231003 52 30 0.0 0.0 0.00 0.11 0.01 60 980.3
20260505230503 52 30 0.0 0.0 0.00 0.11 0.01 59 980.3
20260505230008 52 31 0.0 0.0 0.00 0.11 0.01 60 980.5
20260505225504 52 31 0.0 0.0 0.00 0.11 0.01 59 980.5
20260505225005 52 31 0.0 0.0 0.00 0.11 0.01 60 980.5
20260505224510 52 31 0.0 0.0 0.00 0.11 0.01 56 980.4
20260505224006 52 31 0.0 0.0 0.00 0.11 0.01 56 980.5
20260505223506 52 31 0.0 0.0 0.00 0.11 0.01 56 980.4
20260505223014 52 31 0.0 0.0 0.00 0.11 0.01 60 980.4
20260505222508 52 31 0.0 0.0 0.00 0.11 0.01 58 980.5
20260505222006 53 31 0.0 0.0 0.00 0.11 0.01 58 980.4
20260505221521 53 31 0.0 0.0 0.00 0.11 0.01 56 980.2
20260505221006 53 31 0.0 0.0 0.00 0.11 0.01 58 980.1
20260505220508 53 31 0.0 0.0 0.00 0.11 0.01 57 980.2
20260505220033 53 31 0.0 0.0 0.00 0.11 0.01 54 980.3
20260505215502 53 31 0.0 0.0 0.00 0.11 0.01 55 980.3
20260505215003 53 31 0.0 0.0 0.00 0.11 0.01 58 980.3
20260505214507 53 31 0.0 0.0 0.00 0.11 0.01 54 980.4
20260505214003 53 31 0.0 0.0 0.00 0.11 0.01 55 980.4
20260505213508 54 31 0.0 0.0 0.00 0.11 0.01 58 980.3
20260505213008 54 31 0.0 0.0 0.00 0.11 0.01 58 980.3
20260505212508 54 31 0.0 0.0 0.00 0.11 0.01 55 980.3
20260505212012 54 31 0.0 0.0 0.00 0.11 0.01 57 980.4
20260505211514 55 31 0.0 0.0 0.00 0.11 0.01 54 980.3
20260505211006 55 31 0.0 0.0 0.00 0.11 0.01 57 980.3
20260505210506 56 32 0.0 0.0 0.00 0.11 0.01 56 980.1
20260505210022 56 32 0.0 0.0 0.00 0.11 0.01 59 980.0
20260505205508 56 32 0.0 0.0 0.00 0.11 0.01 59 980.0
20260505205010 56 32 0.0 0.0 0.00 0.11 0.01 59 979.8
20260505204525 57 32 0.0 0.0 0.00 0.11 0.01 60 979.9
20260505204006 57 32 0.0 0.0 0.00 0.11 0.01 60 979.8
20260505203504 57 32 0.0 0.0 0.00 0.11 0.01 61 979.9
20260505203010 57 32 0.0 0.0 0.00 0.11 0.01 63 980.1
20260505202505 57 32 0.0 0.0 0.00 0.11 0.01 60 980.0
20260505202005 58 32 0.0 0.0 0.00 0.11 0.01 59 979.8
20260505201518 58 28 0.0 0.0 0.00 0.11 0.01 60 979.9
20260505201005 58 28 0.0 0.0 0.00 0.11 0.01 62 980.0
20260505200507 58 28 0.0 0.0 0.00 0.11 0.01 60 979.8
20260505200019 58 29 0.0 0.0 0.00 0.11 0.01 62 979.9
20260505195506 58 29 0.0 0.0 0.00 0.11 0.01 61 980.0
20260505195009 58 28 0.0 0.0 0.00 0.11 0.01 64 980.0
20260505194532 58 29 0.0 0.0 0.00 0.11 0.01 61 980.1
20260505194008 57 28 0.0 0.0 0.00 0.11 0.01 62 980.1
20260505193509 57 29 0.0 0.0 0.00 0.11 0.01 64 980.1
20260505193036 57 28 0.0 0.0 0.00 0.11 0.01 64 980.2
20260505192512 57 29 0.0 0.0 0.00 0.11 0.01 62 980.4
20260505192003 57 29 0.0 0.0 0.00 0.11 0.01 64 980.6
20260505191512 57 27 0.0 0.0 0.00 0.11 0.01 64 980.5
20260505191003 57 34 0.0 0.0 0.00 0.11 0.01 68 980.6
20260505190505 56 34 0.0 0.0 0.00 0.11 0.01 67 980.5
20260505190017 56 36 0.0 0.0 0.00 0.11 0.01 64 980.5
20260505185507 56 35 0.0 0.0 0.00 0.11 0.01 67 980.6
20260505185006 56 34 0.0 0.0 0.00 0.11 0.01 64 980.5
20260505184520 56 35 0.0 0.0 0.00 0.11 0.01 65 980.6
20260505184009 56 34 0.0 0.0 0.00 0.11 0.01 64 980.6
20260505183507 56 35 0.0 0.0 0.00 0.11 0.01 65 980.4
20260505183026 57 36 0.0 0.0 0.00 0.11 0.01 68 980.4
20260505182511 57 34 0.0 0.0 0.00 0.11 0.01 65 980.5
20260505182013 56 34 0.0 0.0 0.00 0.11 0.01 68 980.4
20260505181526 56 34 0.0 0.0 0.00 0.11 0.01 68 980.3
20260505181010 56 32 0.0 0.0 0.00 0.11 0.01 67 980.2
20260505180504 56 33 0.0 0.0 0.00 0.11 0.01 67 980.2
20260505180013 56 33 0.0 0.0 0.00 0.11 0.01 67 980.2
20260505175503 55 33 0.0 0.0 0.00 0.11 0.01 68 980.4
20260505175003 55 33 0.0 0.0 0.00 0.11 0.01 71 980.4
20260505174529 54 34 0.0 0.0 0.00 0.11 0.01 70 980.5
20260505174006 54 34 0.0 0.0 0.00 0.11 0.01 70 980.4
20260505173504 54 33 0.0 0.0 0.00 0.11 0.01 70 980.4
20260505173020 54 33 0.0 0.0 0.00 0.11 0.01 70 980.4
20260505172506 54 33 0.0 0.0 0.00 0.11 0.01 73 980.4
20260505172008 54 33 0.0 0.0 0.00 0.11 0.01 71 980.4
20260505171530 53 33 0.0 0.0 0.00 0.11 0.01 74 980.5
20260505171006 53 34 0.0 0.0 0.00 0.11 0.01 75 980.5
20260505170510 52 35 0.0 0.0 0.00 0.11 0.01 76 980.6
20260505170028 51 34 0.0 0.0 0.00 0.11 0.01 78 980.5
20260505165507 51 33 0.0 0.0 0.00 0.11 0.01 78 980.5
20260505165006 50 33 0.0 0.0 0.00 0.11 0.01 79 980.5
20260505164519 50 33 0.0 0.0 0.00 0.11 0.01 78 980.4
20260505164010 49 33 0.0 0.0 0.00 0.11 0.01 80 980.5
20260505163507 49 33 0.0 0.0 0.00 0.11 0.01 81 980.3
20260505163022 49 34 0.0 0.0 0.00 0.11 0.01 81 980.3
20260505162506 48 34 0.0 0.0 0.00 0.11 0.01 81 980.2
20260505162007 48 34 0.0 0.0 0.00 0.11 0.01 82 980.3
20260505161523 48 33 0.0 0.0 0.00 0.11 0.01 80 980.3
20260505161007 48 33 0.0 0.0 0.00 0.11 0.01 82 980.4
20260505160510 48 32 0.0 0.0 0.00 0.11 0.01 81 980.4
20260505153022 48 34 0.0 0.0 0.00 0.11 0.01 82 980.2
20260505152510 48 34 0.0 0.0 0.00 0.11 0.01 82 980.2
20260505152010 48 34 0.0 0.0 0.00 0.11 0.01 81 980.4
20260505151504 48 33 0.0 0.0 0.00 0.11 0.01 81 980.6
20260505151002 48 34 0.0 0.0 0.00 0.11 0.01 81 980.8
20260505150503 48 33 0.0 0.0 0.00 0.11 0.01 80 980.7
20260505140510 51 34 0.0 0.0 0.00 0.11 0.01 74 980.0
20260505125007 53 32 0.0 0.0 0.00 0.11 0.01 69 977.8
20260505124524 53 33 0.0 0.0 0.00 0.11 0.01 70 978.0
20260505124004 53 33 0.0 0.0 0.00 0.11 0.01 71 978.1
20260505123503 53 33 0.0 0.0 0.00 0.11 0.01 71 978.0
20260505123009 53 32 0.0 0.0 0.00 0.11 0.01 71 978.0
20260505122503 52 34 0.0 0.0 0.00 0.11 0.01 71 978.0
20260505122005 52 34 0.0 0.0 0.00 0.11 0.01 71 977.5
20260505121515 52 34 0.0 0.0 0.00 0.11 0.01 71 977.3
20260505121005 52 35 0.0 0.0 0.00 0.11 0.01 72 977.2